Location: Nelson
(47.1935°N, 121.0537°W)
Time: 13:15:26
(UTC+00:00)

BlueWalker 3 - Pass Details

Date: 05 December 2022
Orbit: 499 x 517 km, 53.2° (Epoch: 01 February)

Event Time Altitude Azimuth Distance (km) Brightness Sun altitude
Rises 02:34:02 0° 297° (WNW) 2,628 6.4 -22.7°
Reaches altitude 10° 02:36:18 10° 303° (WNW) 1,736 5.3 -23.1°
Enters shadow 02:39:10 39° 335° (NNW) 778 2.9 -23.6°
